Total_Precipitation_Accumulation
1.39 1.54 1.52 1.48 1.52 1.52 1.47 1.43 1.36 1.18 0.93 0.61 0.49 0.42 0.47 0.53 0.74 0.70 0.56 0.53 0.44 0.36 0.28 0.21 0.18 0.17 0.21 0.26 0.32 0.39 0.43 0.43 0.37 0.31 0.26 0.24 0.22 0.21
1.26 1.39 1.48 1.54 1.61 1.58 1.56 1.54 1.43 1.27 1.14 0.84 0.63 0.51 0.56 0.55 0.66 0.57 0.60 0.71 0.56 0.42 0.34 0.27 0.23 0.20 0.19 0.20 0.19 0.17 0.18 0.20 0.22 0.23 0.22 0.22 0.21 0.22
1.14 1.15 1.28 1.43 1.52 1.57 1.59 1.56 1.53 1.41 1.18 1.02 0.78 0.62 0.63 0.62 0.66 0.58 0.62 0.67 0.60 0.55 0.46 0.37 0.30 0.27 0.21 0.19 0.17 0.13 0.11 0.11 0.13 0.16 0.17 0.15 0.14 0.15
0.93 0.99 1.10 1.16 1.24 1.38 1.50 1.48 1.51 1.51 1.35 1.19 0.98 0.80 0.72 0.68 0.76 0.77 0.75 0.74 0.73 0.82 0.78 0.62 0.48 0.39 0.31 0.24 0.20 0.15 0.12 0.10 0.10 0.11 0.14 0.17 0.18 0.17
0.81 0.85 0.91 1.01 1.12 1.16 1.26 1.35 1.41 1.42 1.42 1.29 1.20 1.09 0.92 0.81 0.82 0.81 0.87 0.97 0.96 0.99 1.07 0.91 0.72 0.57 0.47 0.38 0.31 0.23 0.17 0.15 0.13 0.12 0.12 0.13 0.15 0.16
0.76 0.83 0.88 0.91 0.98 1.06 1.10 1.21 1.33 1.38 1.35 1.27 1.21 1.16 1.08 1.02 0.98 0.94 1.01 1.12 1.17 1.08 1.12 1.08 0.99 0.87 0.71 0.59 0.47 0.37 0.30 0.24 0.21 0.18 0.16 0.14 0.14 0.14
0.72 0.77 0.81 0.76 0.80 0.88 0.87 1.00 1.15 1.28 1.29 1.31 1.23 1.15 1.08 1.04 1.01 1.00 1.05 1.21 1.29 1.29 1.27 1.20 1.11 0.97 0.83 0.72 0.60 0.51 0.46 0.40 0.34 0.30 0.26 0.23 0.20 0.18
0.64 0.69 0.77 0.79 0.76 0.71 0.70 0.76 0.87 0.97 1.07 1.16 1.18 1.12 1.06 1.03 1.08 1.15 1.14 1.21 1.35 1.29 1.18 1.28 1.23 1.12 0.95 0.78 0.77 0.73 0.62 0.52 0.45 0.40 0.37 0.32 0.27 0.25
0.51 0.63 0.75 0.82 0.85 0.86 0.74 0.72 0.74 0.77 0.81 0.94 1.01 1.01 1.01 1.02 1.04 1.12 1.19 1.20 1.13 1.17 1.10 1.20 1.22 1.12 0.98 0.89 0.90 0.82 0.75 0.67 0.60 0.53 0.48 0.44 0.40 0.37
0.44 0.55 0.70 0.82 0.85 0.87 0.82 0.86 0.84 0.75 0.70 0.75 0.90 0.94 0.94 1.06 1.13 1.20 1.28 1.26 1.24 1.21 1.10 1.12 1.09 0.98 0.92 0.91 0.96 0.84 0.76 0.70 0.65 0.62 0.59 0.56 0.53 0.50
0.41 0.49 0.65 0.74 0.84 0.85 0.82 0.91 0.93 0.75 0.67 0.74 0.76 0.82 0.89 1.00 1.14 1.22 1.25 1.22 1.23 1.23 1.06 0.94 0.93 0.94 0.95 0.91 0.88 0.86 0.78 0.71 0.63 0.58 0.55 0.53 0.53 0.58
0.41 0.46 0.66 0.72 0.74 0.71 0.72 0.93 1.03 0.90 0.66 0.62 0.68 0.79 0.85 0.97 1.18 1.28 1.39 1.32 1.14 1.12 1.01 0.90 0.91 0.96 1.08 1.01 0.85 0.77 0.73 0.74 0.72 0.67 0.62 0.59 0.62 0.61
0.27 0.33 0.37 0.49 0.52 0.56 0.67 0.78 0.88 0.79 0.69 0.76 0.85 0.89 0.96 1.00 1.06 1.16 1.33 1.41 1.25 1.04 0.95 0.93 0.94 0.91 0.89 0.87 0.83 0.75 0.66 0.64 0.65 0.67 0.70 0.70 0.70 0.67
0.17 0.23 0.27 0.36 0.41 0.47 0.54 0.59 0.62 0.68 0.72 0.85 0.87 0.80 0.84 0.91 0.91 0.97 1.10 1.20 1.05 0.91 0.81 0.74 0.77 0.73 0.68 0.64 0.65 0.70 0.70 0.64 0.60 0.59 0.59 0.71 0.74 0.73
0.11 0.17 0.21 0.29 0.30 0.36 0.44 0.44 0.53 0.74 0.84 0.78 0.76 0.74 0.73 0.75 0.73 0.82 0.99 1.11 1.03 0.85 0.72 0.61 0.57 0.59 0.57 0.53 0.50 0.52 0.59 0.62 0.58 0.56 0.57 0.58 0.59 0.65
0.11 0.15 0.19 0.27 0.30 0.33 0.38 0.46 0.57 0.72 0.84 0.70 0.59 0.61 0.62 0.68 0.74 0.71 0.78 0.85 0.97 0.95 0.83 0.72 0.62 0.59 0.57 0.49 0.47 0.47 0.46 0.49 0.53 0.55 0.55 0.54 0.53 0.53
0.12 0.21 0.32 0.43 0.43 0.44 0.49 0.53 0.57 0.56 0.60 0.54 0.53 0.58 0.61 0.62 0.68 0.70 0.69 0.67 0.68 0.71 0.73 0.73 0.69 0.65 0.63 0.58 0.54 0.47 0.45 0.43 0.46 0.56 0.60 0.58 0.54 0.53
0.19 0.24 0.36 0.50 0.54 0.56 0.57 0.57 0.59 0.54 0.53 0.48 0.49 0.51 0.51 0.51 0.52 0.59 0.65 0.69 0.63 0.55 0.51 0.49 0.54 0.59 0.64 0.64 0.56 0.49 0.48 0.46 0.45 0.47 0.49 0.49 0.46 0.47
0.20 0.26 0.43 0.49 0.45 0.46 0.50 0.53 0.48 0.38 0.36 0.35 0.31 0.32 0.32 0.33 0.33 0.40 0.48 0.54 0.54 0.50 0.46 0.41 0.40 0.45 0.49 0.49 0.45 0.38 0.40 0.46 0.50 0.49 0.45 0.40 0.35 0.34
0.23 0.36 0.49 0.51 0.44 0.36 0.31 0.27 0.23 0.18 0.17 0.19 0.19 0.19 0.23 0.26 0.26 0.27 0.31 0.35 0.38 0.41 0.45 0.44 0.41 0.39 0.41 0.42 0.41 0.36 0.33 0.36 0.40 0.42 0.43 0.43 0.42 0.47
0.17 0.27 0.34 0.40 0.33 0.20 0.12 0.09 0.08 0.08 0.09 0.11 0.13 0.14 0.15 0.18 0.21 0.23 0.25 0.29 0.31 0.32 0.34 0.36 0.36 0.40 0.38 0.40 0.39 0.34 0.32 0.34 0.35 0.34 0.35 0.40 0.42 0.41
0.06 0.08 0.11 0.11 0.08 0.05 0.05 0.04 0.04 0.05 0.06 0.07 0.08 0.09 0.11 0.14 0.17 0.18 0.18 0.21 0.24 0.25 0.25 0.27 0.30 0.34 0.35 0.36 0.34 0.29 0.27 0.29 0.34 0.39 0.39 0.38 0.35 0.31
0.03 0.03 0.03 0.03 0.02 0.02 0.03 0.03 0.03 0.04 0.05 0.05 0.07 0.08 0.09 0.11 0.14 0.16 0.16 0.16 0.18 0.19 0.21 0.22 0.24 0.28 0.31 0.32 0.30 0.28 0.26 0.26 0.28 0.30 0.31 0.34 0.34 0.31